User: anonymous   Login
Location: Bayshore Village Mobile Home Park
(26.6945°N, 81.8642°W)
Time: 01:30:19
(UTC+00:00)
Language:

Cosmos 407 Rocket - Orbit

View from above orbital plane
View from above orbital plane
View from above satellite
View from above satellite

Ground track
Ground track

The orbit data is extracted from the following two-line orbital elements,

1  5175U 71035B   21260.65934867  .00000100  00000-0  41529-4 0  9999
2  5175  74.0475 230.4262 0028890  52.7228 307.6553 14.38047287638234
Epoch (UTC): 17 September 2021 15:49:27
Eccentricity: 0.0028890
inclination: 74.0475°
perigee height: 744 km
apogee height: 785 km
right ascension of ascending node: 230.4262°
argument of perigee: 52.7228°
revolutions per day: 14.38047287
mean anomaly at epoch: 307.6553°
orbit number at epoch: 63823

The dashed part of the orbit path shows where the satellite is in the earth's shadow,  

DLR